Location: Newark
(49.8969°N, 3.3422°E)
Time: 01:57:10
(UTC+00:00)

A-11 Canister half - Pass Details

Date: 26 January 2020
Orbit: 1517 x 1683 km, 47.2° (Epoch: 21 February)

Event Time Altitude Azimuth Distance (km) Brightness Sun altitude
Exits shadow 04:41:13 45° 244° (WSW) 1,986 9.1 -26.8°
Maximum altitude 04:43:12 51° 209° (SSW) 1,849 9.1 -26.4°
Drops below altitude 10° 04:52:04 10° 137° (SE) 3,708 11.5 -25.0°
Sets 04:55:14 0° 132° (SE) 4,707 12.3 -24.5°
